Vertical_Velocity
-0 -0 0 -2 -11 -5 -1 -5 -0 -1 -1 2 2 2 -2 0 -5 -13 1 4 -4 -1 8 -3 -1 -0 -3 -2 -1 -1 0 -1 -1 0 -0 -1 -1 -2 -2 -2 -2 -2 -1 0 -3 -2 -2 -3 -2
0 -1 1 -2 -8 1 -5 -2 -1 -4 -1 1 -3 0 0 -7 1 -2 3 -0 8 -2 1 2 -2 -0 -1 0 -0 0 -0 1 -1 -1 0 0 0 -2 -3 -3 -4 -3 -2 -2 -1 -2 -1 -3 -1
1 1 -3 -3 -1 -2 -3 -1 -3 -4 1 -2 -4 1 1 -1 3 0 6 1 1 3 -3 5 2 -1 1 -1 2 1 -1 -0 -0 -0 -3 1 1 1 -1 -4 -2 -3 -2 -1 -2 0 -0 -0 -1
-0 -2 -1 -5 -2 -5 -2 -1 -1 -2 -14 4 1 -2 -4 0 -3 2 -3 7 8 3 2 -4 3 1 -0 -0 -0 -0 1 2 -1 -3 -1 -2 -0 1 1 -2 -5 -2 -3 -1 0 -1 -0 1 -1
-1 -1 -2 0 -2 -2 -1 -1 3 -0 -1 -2 -1 -3 -4 3 1 -1 4 10 -2 -0 7 -3 -0 3 -0 1 1 -1 -0 2 -1 -4 -2 -2 -1 -1 1 1 -1 -3 -1 -2 -1 -1 -0 -2 -1
-3 -1 -2 -0 -2 -1 -1 -1 1 0 1 -1 1 -0 1 0 -4 8 2 0 22 8 -1 5 -2 1 5 1 1 1 1 0 -2 1 -4 -1 -0 -0 -0 -0 1 0 -1 -1 -2 -3 -2 1 -1
-6 -2 -2 -0 -2 -1 -3 2 -0 -0 1 -4 -1 -0 3 1 -5 -3 10 -0 8 13 8 -2 2 -2 1 4 2 2 2 1 -2 -0 -3 -0 -0 1 -0 -1 -0 -1 -1 -1 0 -3 -6 -2 -2
-2 -4 0 -1 -1 -5 -1 -1 2 1 -4 1 -0 -2 -1 -2 -3 -4 2 4 1 6 15 8 -3 2 -2 -1 4 2 1 2 1 -2 -1 -3 0 0 -1 0 -1 -1 -0 -0 -0 1 -1 -4 -2
0 -4 -0 -3 -0 -5 0 -0 -1 0 -2 -1 1 -1 -1 -2 -1 -0 18 6 3 5 0 8 -2 -2 3 -1 -1 4 4 0 0 1 -1 1 -1 0 -1 -1 -1 0 0 -0 0 1 0 -0 -2
-3 -1 -4 -4 -2 -1 -1 1 1 1 1 -1 1 -3 -0 3 6 -11 3 30 2 5 3 7 5 -6 2 3 -4 -0 3 0 1 -0 1 0 -0 0 -0 2 0 -1 2 2 -3 1 -1 2 -1
0 -3 -2 -4 -3 4 -0 0 -1 0 -0 -5 -2 0 -1 2 8 -17 -9 -22 56 -7 -1 7 2 3 -6 1 2 -4 1 2 0 2 2 1 1 0 -1 1 3 -2 1 -2 -1 -1 -1 1 1
1 -1 -0 -3 -2 1 -0 1 -0 2 -18 2 -1 -1 1 -2 10 0 1 15 -31 23 -14 6 6 2 -5 -2 2 2 -4 -0 1 2 -0 3 1 -0 -0 -2 1 2 -1 0 2 -2 1 -4 2
2 -1 1 -1 1 1 5 -2 -7 -6 -7 5 -1 -6 2 6 3 -3 -45 -8 5 31 -6 5 2 2 1 -3 1 1 -2 -4 -0 0 -1 1 2 1 -0 -3 -1 1 -0 -0 1 1 1 -3 -0
1 0 -4 -4 -6 2 3 -2 7 -13 1 2 -2 -3 -3 1 -2 7 -23 -12 -51 7 2 -13 -4 3 5 -1 -1 1 2 -0 0 -0 -2 0 4 2 2 -1 -2 -1 2 -2 1 5 3 -2 -1
-0 -0 -2 -2 -2 -2 1 0 -2 -2 3 0 4 3 -2 3 5 -5 -2 -20 -6 -3 5 -7 -6 4 -7 1 0 -1 1 1 4 0 2 -1 3 0 3 -1 -1 -2 -3 -2 -2 2 4 1 -1
-0 -1 -2 -5 -0 -3 -1 -4 -4 2 1 -3 -2 1 6 -4 -17 23 -2 -32 -21 24 -3 -1 -0 -4 1 -3 -3 -3 -3 -4 1 2 -1 1 4 1 2 0 1 -0 0 0 -2 -0 3 2 1
-1 -1 1 -7 0 -0 1 -3 -3 -0 1 -2 -1 -2 3 6 0 -2 -13 -21 87 18 -1 -4 4 -4 3 2 0 -1 -1 -2 -1 -3 -1 0 4 2 3 1 1 3 1 1 -2 0 2 1 2
-3 1 -0 -1 -6 -2 -2 -7 -2 -2 0 -2 0 -1 1 -3 -14 8 -19 15 5 -1 6 4 4 4 -1 1 2 3 5 4 2 -1 -2 -1 -2 2 1 2 1 -0 4 0 -3 4 -0 1 1
-1 1 0 -2 -4 4 -1 -1 -4 -3 1 -1 -4 -4 -1 -5 9 6 12 2 -10 16 -3 -3 -5 6 4 -3 -4 0 -6 2 7 3 4 3 2 3 2 -2 -2 1 1 1 1 3 -0 1 2
1 1 -3 -4 -1 3 -1 -10 -5 -0 -4 -6 -2 -2 -5 3 -5 2 6 7 -1 1 16 10 -3 2 4 4 3 -1 -4 -1 3 8 1 5 4 2 -3 1 -2 1 3 -2 -3 -4 -4 -1 1
-1 -1 -1 -0 -2 -2 0 -6 -4 -4 -0 2 -1 -2 -0 -4 -4 -3 -1 0 6 -1 -3 2 -2 -1 -1 5 0 3 5 6 2 -3 8 -4 6 5 3 4 5 3 3 -0 -1 3 -3 -7 -2
3 -2 0 1 -0 -3 -4 -9 -3 -2 -3 -0 -1 -0 -3 -3 0 -6 2 -0 1 -10 -3 2 5 2 3 -6 -5 -4 -2 -8 -3 2 -3 5 2 -1 6 5 4 4 4 1 6 -2 4 1 -5
-10 -0 -1 -0 0 -0 -1 -1 -15 -0 -4 -2 -1 1 -2 -2 -2 -2 -9 1 -1 4 0 -2 -4 4 4 -0 -2 1 1 0 -1 -2 3 -3 -1 2 3 0 2 4 2 5 4 0 -0 3 4
-1 -2 -2 -1 -1 1 -5 -3 -8 -2 -3 -2 -1 3 4 1 -1 3 3 2 0 12 3 2 -3 -3 3 5 -2 -3 -1 -0 -1 2 1 2 2 1 0 0 2 4 0 -2 -2 0 1 1 4
1 -0 -1 2 2 -6 -0 0 -11 -2 -1 0 1 2 2 3 1 -3 -1 -2 -2 -2 -0 4 4 -4 -4 -2 1 -2 -2 -1 4 1 -2 -2 -1 -1 -3 0 -1 -3 7 3 6 4 -1 2 -1
-2 -5 -7 -6 -2 -4 -1 -4 -19 -2 -1 1 -1 2 5 2 2 3 2 3 1 2 4 -2 2 1 -2 3 -5 2 6 -1 2 2 -3 1 0 2 2 2 0 1 4 6 6 -0 3 3 5
-2 3 -8 -4 -1 -2 -4 -7 -8 -0 1 1 1 2 3 3 5 1 1 -1 2 5 4 6 6 6 4 1 3 -3 2 -1 -4 -1 3 0 2 2 2 3 2 2 1 5 1 11 2 -1 5
-11 -6 -6 1 -1 -0 -3 -1 -7 0 2 2 1 1 1 2 1 5 2 1 2 2 -1 -1 -0 2 5 11 3 -1 -2 5 4 5 2 -2 3 0 -1 0 0 3 1 7 4 3 9 5 6
4 3 1 -5 -4 -5 -2 -9 -3 -2 -2 -1 0 3 2 5 6 3 2 3 4 0 2 2 3 0 1 4 12 8 1 2 4 3 4 2 5 -0 1 -1 1 8 11 12 13 8 5 7 10
-5 -7 -4 -4 1 -2 -4 -14 1 1 0 -1 3 9 4 2 3 3 5 5 3 0 -1 -1 2 2 1 -1 -5 -1 -1 2 1 -4 -1 1 -1 6 1 10 9 4 -2 2 9 -4 4 8 4
Height
1504 1505 1508 1511 1522 1525 1526 1514 1502 1500 1497 1495 1496 1498 1497 1494 1496 1501 1479 1481 1486 1489 1492 1497 1502 1506 1509 1512 1514 1516 1517 1518 1520 1521 1521 1523 1524 1526 1528 1529 1531 1533 1534 1535 1535 1537 1537 1539 1539
1504 1506 1509 1510 1526 1530 1522 1508 1503 1496 1492 1493 1493 1493 1494 1491 1490 1487 1481 1482 1486 1489 1494 1496 1501 1505 1508 1511 1513 1515 1517 1519 1520 1521 1523 1524 1525 1526 1528 1530 1532 1534 1536 1537 1537 1538 1539 1540 1541
1504 1506 1508 1513 1523 1522 1517 1501 1498 1494 1495 1497 1498 1496 1495 1493 1491 1488 1484 1482 1486 1489 1494 1498 1501 1505 1508 1511 1513 1515 1517 1519 1520 1522 1524 1525 1526 1527 1529 1531 1534 1535 1537 1538 1539 1540 1541 1541 1543
1505 1508 1511 1517 1519 1511 1503 1498 1498 1498 1494 1496 1498 1498 1497 1495 1491 1488 1486 1485 1487 1489 1493 1499 1503 1505 1508 1511 1513 1515 1517 1518 1521 1522 1524 1526 1527 1529 1530 1532 1534 1536 1538 1540 1541 1542 1543 1544 1545
1505 1507 1517 1518 1514 1505 1499 1495 1495 1497 1499 1497 1498 1497 1496 1492 1489 1488 1488 1489 1486 1491 1495 1499 1504 1507 1509 1511 1513 1515 1517 1519 1520 1522 1525 1527 1529 1530 1531 1533 1535 1537 1539 1540 1542 1543 1544 1545 1546
1505 1507 1520 1520 1511 1501 1497 1495 1495 1494 1495 1495 1496 1495 1494 1491 1489 1490 1490 1491 1495 1489 1494 1500 1504 1509 1511 1512 1514 1516 1518 1520 1521 1523 1526 1528 1529 1531 1532 1534 1535 1537 1539 1541 1542 1544 1546 1547 1548
1505 1510 1515 1513 1509 1503 1496 1493 1494 1494 1493 1493 1493 1492 1492 1491 1490 1493 1494 1495 1498 1500 1494 1498 1503 1508 1512 1514 1515 1517 1518 1520 1522 1524 1526 1529 1530 1532 1533 1535 1537 1538 1539 1541 1543 1544 1545 1549 1550
1503 1507 1510 1509 1508 1503 1493 1492 1492 1493 1492 1491 1492 1491 1492 1489 1489 1492 1496 1497 1502 1503 1501 1497 1503 1507 1510 1514 1516 1518 1520 1521 1523 1525 1527 1529 1532 1533 1534 1536 1537 1539 1540 1542 1544 1544 1546 1549 1551
1503 1511 1514 1505 1503 1496 1492 1493 1492 1492 1492 1491 1490 1489 1489 1488 1488 1493 1496 1498 1501 1504 1503 1501 1501 1506 1509 1512 1516 1518 1520 1522 1523 1526 1528 1530 1532 1534 1535 1537 1538 1540 1541 1543 1544 1546 1548 1549 1552
1501 1510 1502 1494 1492 1491 1491 1492 1491 1491 1488 1487 1487 1487 1489 1488 1485 1489 1490 1497 1499 1502 1504 1503 1501 1505 1510 1512 1514 1518 1520 1522 1524 1527 1528 1530 1532 1534 1536 1537 1538 1540 1542 1544 1546 1548 1549 1552 1553
1498 1500 1493 1489 1488 1489 1489 1490 1489 1487 1484 1483 1482 1481 1483 1485 1483 1484 1490 1488 1498 1500 1504 1503 1502 1504 1509 1512 1513 1516 1520 1523 1525 1528 1529 1530 1532 1533 1535 1538 1540 1541 1543 1545 1546 1549 1551 1554 1555
1496 1489 1489 1487 1486 1486 1487 1487 1486 1482 1477 1479 1477 1478 1479 1478 1478 1475 1477 1486 1489 1497 1501 1502 1502 1502 1506 1512 1515 1516 1519 1523 1525 1528 1530 1531 1532 1533 1535 1539 1541 1542 1544 1546 1548 1550 1551 1555 1557
1492 1488 1486 1484 1482 1482 1483 1483 1483 1475 1474 1474 1474 1475 1473 1473 1474 1479 1481 1471 1493 1495 1494 1499 1499 1501 1504 1509 1513 1516 1518 1522 1525 1528 1531 1533 1533 1534 1535 1538 1542 1544 1545 1548 1549 1550 1552 1554 1557
1488 1487 1484 1480 1476 1476 1477 1476 1479 1468 1467 1468 1470 1469 1469 1471 1469 1463 1468 1471 1482 1486 1485 1494 1498 1500 1503 1507 1511 1515 1517 1521 1525 1527 1531 1533 1535 1536 1535 1537 1541 1544 1546 1548 1551 1553 1552 1554 1558
1486 1487 1481 1473 1471 1470 1470 1475 1472 1463 1464 1463 1465 1465 1465 1466 1471 1465 1456 1451 1468 1475 1479 1486 1492 1496 1501 1506 1509 1514 1517 1520 1523 1526 1530 1533 1534 1537 1536 1538 1541 1544 1546 1547 1551 1554 1554 1554 1558
1487 1487 1488 1471 1469 1467 1469 1473 1463 1462 1461 1461 1460 1461 1461 1460 1459 1458 1450 1458 1458 1458 1473 1481 1487 1491 1496 1501 1506 1511 1515 1519 1523 1526 1528 1532 1534 1535 1536 1537 1540 1543 1545 1547 1551 1554 1555 1556 1558
1490 1492 1489 1478 1468 1467 1468 1469 1462 1461 1461 1459 1456 1454 1456 1456 1456 1457 1456 1444 1429 1451 1468 1476 1482 1488 1492 1496 1502 1508 1512 1516 1520 1524 1526 1530 1533 1534 1535 1537 1539 1541 1543 1546 1550 1552 1556 1557 1559
1488 1491 1485 1482 1471 1467 1464 1456 1457 1458 1457 1453 1452 1451 1451 1453 1450 1451 1454 1454 1452 1457 1467 1474 1479 1487 1490 1494 1499 1504 1510 1513 1516 1519 1523 1527 1530 1533 1533 1536 1539 1541 1542 1545 1549 1552 1555 1557 1560
1480 1482 1482 1477 1471 1472 1465 1452 1449 1450 1451 1447 1444 1442 1440 1444 1446 1446 1449 1456 1459 1456 1466 1472 1477 1484 1485 1489 1493 1499 1504 1509 1513 1516 1520 1524 1527 1530 1532 1534 1537 1540 1541 1543 1547 1550 1553 1556 1559
1483 1485 1484 1474 1468 1470 1464 1449 1437 1436 1435 1436 1434 1435 1435 1437 1440 1443 1446 1450 1457 1463 1464 1465 1473 1480 1483 1486 1491 1496 1502 1507 1512 1514 1518 1522 1525 1527 1529 1532 1533 1537 1538 1539 1543 1547 1548 1554 1557
1481 1484 1481 1478 1471 1467 1467 1453 1436 1429 1429 1430 1431 1429 1431 1432 1436 1439 1445 1448 1451 1456 1461 1466 1471 1475 1478 1483 1490 1494 1500 1505 1509 1511 1513 1518 1522 1524 1527 1529 1532 1535 1536 1536 1540 1541 1543 1547 1552
1481 1474 1474 1474 1476 1481 1468 1471 1445 1430 1428 1425 1424 1426 1425 1427 1432 1436 1439 1445 1449 1455 1460 1463 1464 1468 1472 1478 1486 1491 1494 1499 1503 1507 1511 1515 1518 1522 1526 1527 1530 1532 1534 1536 1536 1541 1542 1542 1546
1472 1468 1471 1470 1474 1478 1472 1484 1444 1434 1424 1423 1422 1421 1422 1422 1427 1431 1436 1440 1445 1449 1453 1458 1463 1467 1469 1475 1479 1487 1491 1496 1503 1506 1510 1513 1515 1518 1521 1524 1527 1530 1532 1534 1535 1538 1540 1541 1544
1464 1469 1475 1478 1482 1484 1469 1470 1449 1434 1426 1422 1423 1419 1419 1420 1422 1426 1433 1438 1441 1444 1448 1454 1461 1464 1466 1472 1476 1483 1488 1492 1497 1500 1505 1508 1511 1514 1517 1521 1524 1527 1529 1531 1533 1535 1538 1540 1543
1464 1472 1481 1479 1479 1474 1467 1472 1445 1429 1425 1423 1423 1423 1421 1421 1422 1425 1429 1434 1439 1442 1445 1451 1457 1460 1464 1469 1471 1478 1482 1487 1491 1494 1499 1503 1506 1508 1511 1515 1518 1522 1526 1528 1531 1532 1534 1537 1540
1462 1461 1480 1487 1488 1479 1470 1470 1437 1422 1422 1423 1424 1425 1423 1424 1426 1427 1429 1432 1436 1442 1447 1450 1453 1457 1462 1464 1467 1473 1477 1481 1485 1488 1492 1498 1501 1504 1508 1512 1514 1518 1523 1526 1527 1529 1533 1535 1536
1459 1458 1460 1479 1493 1485 1469 1450 1428 1419 1424 1425 1427 1427 1426 1427 1429 1431 1432 1434 1435 1439 1444 1448 1450 1453 1455 1459 1466 1469 1473 1476 1479 1482 1486 1490 1495 1500 1504 1508 1511 1515 1519 1521 1524 1526 1528 1531 1534
1446 1450 1462 1464 1472 1474 1463 1453 1444 1423 1425 1428 1430 1430 1431 1431 1432 1434 1435 1437 1438 1440 1442 1445 1447 1451 1454 1458 1460 1464 1467 1469 1473 1476 1479 1483 1489 1493 1497 1502 1506 1511 1514 1518 1520 1524 1527 1528 1530
1443 1446 1450 1451 1465 1476 1476 1455 1434 1431 1427 1429 1431 1432 1434 1437 1437 1436 1437 1439 1439 1440 1441 1443 1445 1447 1450 1454 1458 1459 1461 1464 1467 1470 1473 1477 1483 1486 1490 1494 1499 1504 1508 1514 1517 1520 1526 1528 1530
1425 1426 1438 1453 1450 1467 1470 1462 1430 1425 1426 1431 1434 1436 1436 1438 1438 1437 1437 1440 1442 1442 1444 1444 1445 1447 1448 1450 1454 1457 1458 1461 1463 1465 1468 1472 1477 1480 1483 1487 1490 1494 1498 1508 1516 1518 1525 1526 1527